Radiation Dose at Monitoring Post of Fukushima Daini Nuclear Power Station
Date,Time,MP-1(microSv/h),MP-2(microSv/h),MP-3(microSv/h),MP-4(microSv/h),MP-5(microSv/h),MP-6(microSv/h),MP-7(microSv/h),Wind Direction,Wind Velocity(m/s),Rain
2018/11/29,00:00,0.277,0.195,0.310,0.299,0.284,0.159,0.099,north-northwest,7.0,Yes
2018/11/29,00:10,0.277,0.195,0.309,0.300,0.282,0.159,0.098,north-northwest,5.3,Yes
2018/11/29,00:20,0.277,0.195,0.309,0.298,0.283,0.160,0.098,north,5.6,Yes
2018/11/29,00:30,0.276,0.195,0.311,0.298,0.283,0.159,0.097,north,7.4,Yes
2018/11/29,00:40,0.276,0.196,0.310,0.299,0.284,0.160,0.097,north,7.4,Yes
2018/11/29,00:50,0.276,0.195,0.310,0.298,0.285,0.159,0.098,north,6.6,Yes
2018/11/29,01:00,0.277,0.196,0.310,0.299,0.285,0.161,0.099,north,6.1,Yes
2018/11/29,01:10,0.279,0.196,0.311,0.300,0.282,0.160,0.099,north-northwest,5.2,Yes
2018/11/29,01:20,0.278,0.197,0.311,0.299,0.283,0.161,0.100,north,7.1,Yes
2018/11/29,01:30,0.279,0.197,0.313,0.299,0.285,0.161,0.100,north,6.9,Yes
2018/11/29,01:40,0.278,0.199,0.311,0.300,0.284,0.161,0.100,north,8.4,Yes
2018/11/29,01:50,0.278,0.197,0.311,0.300,0.284,0.160,0.100,north,6.5,Yes
2018/11/29,02:00,0.279,0.197,0.311,0.298,0.284,0.161,0.100,north-northwest,7.1,Yes
2018/11/29,02:10,0.279,0.198,0.311,0.300,0.284,0.161,0.101,north-northwest,6.2,Yes
2018/11/29,02:20,0.279,0.198,0.312,0.301,0.284,0.162,0.101,north,6.6,Yes
2018/11/29,02:30,0.278,0.198,0.313,0.301,0.284,0.162,0.102,north-northwest,6.3,Yes
2018/11/29,02:40,0.280,0.198,0.312,0.299,0.283,0.163,0.100,north-northwest,5.9,Yes
2018/11/29,02:50,0.278,0.198,0.312,0.300,0.283,0.160,0.099,north-northwest,6.4,No
2018/11/29,03:00,0.276,0.196,0.310,0.297,0.282,0.161,0.099,north-northwest,6.5,No
2018/11/29,03:10,0.276,0.195,0.310,0.299,0.281,0.159,0.099,north-northwest,7.0,No
2018/11/29,03:20,0.276,0.194,0.310,0.297,0.281,0.158,0.097,northwest,6.9,No
2018/11/29,03:30,0.275,0.193,0.308,0.296,0.282,0.158,0.098,northwest,6.8,No
2018/11/29,03:40,0.275,0.193,0.306,0.296,0.280,0.156,0.096,northwest,7.4,No
2018/11/29,03:50,0.275,0.192,0.308,0.296,0.279,0.156,0.096,northwest,7.6,No
2018/11/29,04:00,0.275,0.192,0.306,0.294,0.281,0.156,0.096,north-northwest,8.1,No
2018/11/29,04:10,0.273,0.193,0.306,0.295,0.279,0.156,0.096,north-northwest,7.2,No
2018/11/29,04:20,0.275,0.192,0.308,0.295,0.279,0.155,0.096,north-northwest,7.4,No
2018/11/29,04:30,0.274,0.191,0.306,0.294,0.279,0.155,0.095,north-northwest,6.6,No
2018/11/29,04:40,0.273,0.192,0.306,0.293,0.279,0.155,0.095,north-northwest,7.1,No
2018/11/29,04:50,0.274,0.192,0.308,0.296,0.278,0.155,0.095,north-northwest,7.1,No
2018/11/29,05:00,0.274,0.192,0.307,0.294,0.281,0.156,0.094,north-northwest,7.1,No
2018/11/29,05:10,0.274,0.192,0.306,0.293,0.279,0.155,0.094,north-northwest,7.4,No
2018/11/29,05:20,0.274,0.191,0.306,0.295,0.280,0.155,0.094,north-northwest,8.1,No
2018/11/29,05:30,0.273,0.191,0.308,0.293,0.279,0.155,0.095,north-northwest,8.4,No
2018/11/29,05:40,0.273,0.191,0.307,0.294,0.279,0.156,0.094,north-northwest,8.1,No
2018/11/29,05:50,0.273,0.191,0.306,0.294,0.279,0.156,0.095,north-northwest,8.7,No
2018/11/29,06:00,0.274,0.191,0.307,0.296,0.278,0.155,0.094,north-northwest,8.8,No
2018/11/29,06:10,0.272,0.191,0.307,0.295,0.281,0.156,0.094,north-northwest,8.5,No
2018/11/29,06:20,0.274,0.191,0.306,0.296,0.280,0.156,0.094,north-northwest,8.5,No
2018/11/29,06:30,0.273,0.191,0.306,0.295,0.279,0.155,0.095,north-northwest,7.4,No
2018/11/29,06:40,0.274,0.191,0.306,0.294,0.280,0.155,0.094,north-northwest,7.6,No
2018/11/29,06:50,0.272,0.190,0.307,0.294,0.279,0.155,0.095,north-northwest,7.1,No
2018/11/29,07:00,0.273,0.191,0.307,0.295,0.280,0.155,0.095,north-northwest,7.6,No
2018/11/29,07:10,0.274,0.191,0.307,0.294,0.278,0.155,0.094,north-northwest,8.5,No
2018/11/29,07:20,0.274,0.191,0.307,0.294,0.280,0.155,0.095,north-northwest,7.8,No
2018/11/29,07:30,0.273,0.190,0.306,0.295,0.280,0.154,0.094,north-northwest,7.2,No
2018/11/29,07:40,0.273,0.192,0.307,0.296,0.278,0.155,0.094,north-northwest,7.1,No
2018/11/29,07:50,0.272,0.192,0.307,0.294,0.279,0.155,0.095,north-northwest,6.2,No
2018/11/29,08:00,0.273,0.192,0.308,0.292,0.280,0.155,0.094,north-northwest,7.2,No
2018/11/29,08:10,0.272,0.192,0.305,0.294,0.278,0.155,0.095,north-northwest,6.1,No
2018/11/29,08:20,0.273,0.193,0.306,0.294,0.280,0.154,0.094,north-northwest,6.5,No
2018/11/29,08:30,0.273,0.191,0.307,0.293,0.279,0.156,0.095,north-northwest,6.2,No
2018/11/29,08:40,0.272,0.191,0.308,0.293,0.280,0.155,0.095,north-northwest,6.2,No
2018/11/29,08:50,0.274,0.191,0.307,0.291,0.278,0.154,0.093,north,5.0,No
2018/11/29,09:00,0.274,0.192,0.307,0.295,0.280,0.154,0.094,north-northwest,4.6,No
2018/11/29,09:10,0.274,0.192,0.308,0.293,0.279,0.155,0.095,north-northwest,5.4,No
2018/11/29,09:20,0.273,0.191,0.308,0.293,0.279,0.154,0.095,north-northwest,5.3,No
2018/11/29,09:30,0.273,0.193,0.306,0.293,0.279,0.155,0.094,north,5.5,No
2018/11/29,09:40,0.275,0.191,0.307,0.294,0.279,0.155,0.095,north,5.6,No
2018/11/29,09:50,0.273,0.191,0.308,0.294,0.280,0.156,0.095,north,5.3,No
2018/11/29,10:00,0.273,0.191,0.306,0.295,0.279,0.157,0.094,north,5.0,No
2018/11/29,10:10,0.272,0.191,0.306,0.295,0.279,0.155,0.095,north,3.3,No
2018/11/29,10:20,0.272,0.192,0.308,0.293,0.279,0.155,0.095,north,5.5,No
2018/11/29,10:30,0.273,0.190,0.307,0.294,0.278,0.155,0.095,north,5.9,No
2018/11/29,10:40,0.272,0.191,0.306,0.293,0.279,0.156,0.094,north,6.3,No
2018/11/29,10:50,0.274,0.190,0.306,0.295,0.278,0.155,0.094,north,5.0,No
2018/11/29,11:00,0.272,0.191,0.307,0.294,0.280,0.155,0.095,north-northeast,5.9,No
2018/11/29,11:10,0.271,0.191,0.307,0.295,0.278,0.155,0.094,north-northeast,6.9,No
2018/11/29,11:20,0.268,0.192,0.308,0.294,0.281,0.156,0.096,northeast,6.9,No
2018/11/29,11:30,0.271,0.190,0.308,0.295,0.279,0.156,0.095,northeast,6.8,No
2018/11/29,11:40,0.268,0.192,0.306,0.295,0.280,0.155,0.095,north-northeast,6.7,No
2018/11/29,11:50,0.264,0.192,0.308,0.295,0.279,0.155,0.095,north-northeast,6.3,No
2018/11/29,12:00,0.264,0.191,0.306,0.294,0.281,0.156,0.095,northeast,6.6,No
2018/11/29,12:10,0.264,0.192,0.307,0.296,0.278,0.155,0.094,northeast,7.2,No
2018/11/29,12:20,0.265,0.191,0.305,0.293,0.281,0.155,0.095,north-northeast,7.1,No
2018/11/29,12:30,0.266,0.192,0.307,0.297,0.278,0.155,0.094,north,6.9,No
2018/11/29,12:40,0.265,0.192,0.306,0.294,0.281,0.155,0.095,north,5.1,No
2018/11/29,12:50,0.266,0.192,0.306,0.294,0.278,0.155,0.095,north,6.2,No
2018/11/29,13:00,0.265,0.191,0.306,0.295,0.281,0.156,0.095,north-northwest,4.4,No
2018/11/29,13:10,0.267,0.191,0.307,0.295,0.280,0.155,0.095,north,4.4,No
2018/11/29,13:20,0.264,0.192,0.306,0.296,0.281,0.155,0.094,north-northwest,5.0,No
2018/11/29,13:30,0.265,0.192,0.306,0.294,0.279,0.156,0.096,north,5.0,No
2018/11/29,13:40,0.261,0.191,0.308,0.295,0.280,0.155,0.095,north,5.3,No
2018/11/29,13:50,0.261,0.191,0.306,0.294,0.282,0.156,0.094,north,4.4,No
2018/11/29,14:00,0.262,0.191,0.307,0.296,0.277,0.156,0.094,north-northeast,5.9,No
2018/11/29,14:10,0.262,0.193,0.307,0.295,0.280,0.156,0.095,north,5.1,No
2018/11/29,14:20,0.266,0.192,0.306,0.294,0.280,0.155,0.094,north,4.1,No
2018/11/29,14:30,0.265,0.192,0.307,0.297,0.281,0.155,0.094,north,4.6,No
2018/11/29,14:40,0.264,0.192,0.308,0.295,0.279,0.155,0.095,north-northwest,3.5,No
2018/11/29,14:50,0.265,0.192,0.307,0.295,0.280,0.156,0.094,north-northwest,4.8,No
2018/11/29,15:00,0.265,0.193,0.308,0.296,0.281,0.156,0.095,north,2.8,No
2018/11/29,15:10,0.262,0.192,0.307,0.296,0.281,0.156,0.095,north-northwest,3.0,No
2018/11/29,15:20,0.263,0.191,0.308,0.294,0.283,0.156,0.094,north-northeast,3.0,No
2018/11/29,15:30,0.264,0.193,0.307,0.296,0.280,0.156,0.095,northeast,2.3,No
2018/11/29,15:40,0.264,0.192,0.307,0.296,0.282,0.156,0.095,north,2.9,No
2018/11/29,15:50,0.265,0.193,0.309,0.296,0.281,0.156,0.094,north,2.8,No
2018/11/29,16:00,0.263,0.191,0.308,0.297,0.279,0.156,0.095,north,2.7,No
2018/11/29,16:10,0.263,0.192,0.306,0.296,0.282,0.156,0.094,north-northeast,4.0,No
2018/11/29,16:20,0.264,0.192,0.307,0.297,0.280,0.157,0.095,northeast,4.4,No
2018/11/29,16:30,0.263,0.193,0.308,0.298,0.281,0.156,0.095,north-northeast,3.2,No
2018/11/29,16:40,0.264,0.191,0.307,0.296,0.280,0.157,0.095,north,3.7,No
2018/11/29,16:50,0.265,0.191,0.308,0.297,0.280,0.156,0.096,north,3.3,No
2018/11/29,17:00,0.263,0.193,0.308,0.295,0.280,0.156,0.095,north,3.3,No
2018/11/29,17:10,0.263,0.191,0.309,0.296,0.279,0.157,0.095,north,2.3,No
2018/11/29,17:20,0.264,0.192,0.307,0.295,0.281,0.157,0.095,north,3.2,No
2018/11/29,17:30,0.263,0.193,0.309,0.295,0.280,0.156,0.095,north,2.8,No
2018/11/29,17:40,0.264,0.192,0.307,0.296,0.280,0.156,0.095,north-northwest,3.8,No
2018/11/29,17:50,0.265,0.192,0.308,0.297,0.280,0.156,0.094,north-northwest,3.9,No
2018/11/29,18:00,0.264,0.192,0.308,0.296,0.280,0.157,0.095,northwest,2.8,No
2018/11/29,18:10,0.265,0.192,0.310,0.298,0.280,0.157,0.096,northwest,2.9,No
2018/11/29,18:20,0.265,0.192,0.308,0.296,0.280,0.156,0.095,north-northwest,2.1,No
2018/11/29,18:30,0.264,0.192,0.307,0.297,0.280,0.157,0.096,west,2.1,No
2018/11/29,18:40,0.265,0.193,0.309,0.297,0.280,0.156,0.095,southwest,2.0,No
2018/11/29,18:50,0.266,0.192,0.308,0.297,0.280,0.157,0.095,west-northwest,0.9,No
2018/11/29,19:00,0.265,0.193,0.309,0.295,0.279,0.157,0.095,southwest,1.6,No
2018/11/29,19:10,0.265,0.192,0.308,0.295,0.279,0.156,0.095,south-southwest,1.6,No
2018/11/29,19:20,0.264,0.193,0.309,0.297,0.279,0.156,0.095,south-southwest,2.3,No
2018/11/29,19:30,0.263,0.192,0.309,0.297,0.279,0.156,0.095,south-southwest,4.5,No
2018/11/29,19:40,0.265,0.193,0.309,0.297,0.279,0.156,0.095,south,5.6,No
2018/11/29,19:50,0.265,0.192,0.308,0.296,0.279,0.156,0.095,south-southwest,6.6,No
2018/11/29,20:00,0.264,0.192,0.308,0.297,0.281,0.155,0.095,south-southwest,6.6,No
2018/11/29,20:10,0.263,0.193,0.306,0.298,0.281,0.157,0.096,south-southwest,7.3,No
2018/11/29,20:20,0.264,0.193,0.308,0.297,0.279,0.156,0.096,south-southwest,5.8,No
2018/11/29,20:30,0.265,0.192,0.309,0.296,0.281,0.156,0.096,south-southwest,6.3,No
2018/11/29,20:40,0.264,0.192,0.310,0.298,0.280,0.155,0.095,south-southwest,5.2,No
2018/11/29,20:50,0.264,0.194,0.308,0.297,0.280,0.156,0.096,southwest,5.7,No
2018/11/29,21:00,0.264,0.192,0.308,0.296,0.279,0.157,0.096,southwest,5.3,No
2018/11/29,21:10,0.265,0.192,0.308,0.297,0.280,0.156,0.096,southwest,6.4,No
2018/11/29,21:20,0.265,0.192,0.308,0.297,0.281,0.156,0.095,southwest,6.9,No
2018/11/29,21:30,0.264,0.193,0.308,0.296,0.281,0.157,0.096,southwest,7.1,No
2018/11/29,21:40,0.264,0.193,0.308,0.296,0.280,0.156,0.095,southwest,6.9,No
2018/11/29,21:50,0.265,0.192,0.308,0.297,0.280,0.157,0.096,southwest,7.3,No
2018/11/29,22:00,0.264,0.193,0.309,0.297,0.280,0.157,0.096,southwest,5.6,No
2018/11/29,22:10,0.263,0.192,0.308,0.297,0.280,0.156,0.095,southwest,6.3,No
2018/11/29,22:20,0.264,0.192,0.308,0.296,0.281,0.157,0.095,southwest,6.6,No
2018/11/29,22:30,0.265,0.192,0.310,0.295,0.280,0.156,0.095,southwest,6.1,No
2018/11/29,22:40,0.263,0.193,0.307,0.297,0.280,0.156,0.095,south-southwest,5.7,No
2018/11/29,22:50,0.264,0.193,0.307,0.295,0.279,0.156,0.096,south-southwest,4.6,No
2018/11/29,23:00,0.265,0.191,0.307,0.296,0.280,0.157,0.096,south-southwest,5.0,No
2018/11/29,23:10,0.265,0.192,0.309,0.297,0.280,0.157,0.095,southwest,4.9,No
2018/11/29,23:20,0.265,0.194,0.308,0.297,0.281,0.157,0.095,southwest,3.9,No
2018/11/29,23:30,0.264,0.193,0.307,0.296,0.281,0.156,0.096,west-southwest,3.3,No
2018/11/29,23:40,0.265,0.192,0.308,0.296,0.280,0.156,0.095,west-southwest,3.7,No
2018/11/29,23:50,0.266,0.192,0.310,0.298,0.281,0.156,0.096,west-southwest,3.2,No
